[Iaude] MPEC J147: 2024 JM3 [a=1.82,e=0.46,i=15.1,H=25.0]
    mpec at cfa.harvard.edu 
    mpec at cfa.harvard.edu
       
    Wed May  8 06:55:18 EDT 2024
    
    
  
M.P.E.C. 2024-J147                                  Issued 2024 May 8, 10:53 UT
     The Minor Planet Electronic Circulars contain information on unusual
         minor planets, routine data on comets and natural satellites,
         and occasional editorial announcements.  They are published
    on behalf of Division F of the International Astronomical Union by the
          Minor Planet Center, Smithsonian Astrophysical Observatory,
                          Cambridge, MA 02138, U.S.A.
			  
             Prepared using the Tamkin Foundation Computer Network
                              MPC at CFA.HARVARD.EDU
            URL https://www.minorplanetcenter.net/    ISSN 1523-6714
                                    2024 JM3                                    
Observations:
     K24J03M* C2024 05 06.31682412 55 22.610+05 43 28.49         19.28GVEJ147F52
     K24J03M  C2024 05 06.32872212 55 26.238+05 38 42.51         20.33GVEJ147F52
     K24J03M  C2024 05 06.34082512 55 29.897+05 33 51.68               VEJ147F52
     K24J03M  C2024 05 06.35266512 55 33.477+05 29 08.48               VEJ147F52
     K24J03M  C2024 05 06.40354012 55 48.888+05 08 50.72               VEJ147F51
     K24J03M  C2024 05 06.40470912 55 49.234+05 08 23.19               VEJ147F51
     K24J03M |C2024 05 07.02606012 59 37.000+01 08 13.10         20.5 GVEJ147807
     K24J03M |C2024 05 07.02936012 59 37.980+01 06 57.40         20.5 GVEJ147807
     K24J03M |C2024 05 07.03266012 59 38.960+01 05 42.10         20.4 GVEJ147807
     K24J03M KC2024 05 07.08065812 59 55.04 +00 44 34.7          20.0 GVEJ147H21
     K24J03M KC2024 05 07.08259412 59 55.63 +00 43 50.7          20.2 GVEJ147H21
     K24J03M KC2024 05 07.08453012 59 56.21 +00 43 06.6          20.3 GVEJ147H21
     K24J03M mC2024 05 07.13791913 00 15.379+00 23 07.94         20.30GVEJ147I52
     K24J03M mC2024 05 07.13867013 00 15.631+00 22 50.81               VEJ147I52
     K24J03M mC2024 05 07.13903713 00 15.718+00 22 42.35         20.21GVEJ147I52
     K24J03M  C2024 05 07.27907613 00 55.947-00 29 59.18         20.0 GVEJ147H01
     K24J03M  C2024 05 07.28260213 00 56.989-00 31 18.17         19.8 GVEJ147H01
     K24J03M  C2024 05 07.29289513 01 00.007-00 35 08.89         19.5 GVEJ147H01
     K24J03M  C2024 05 07.30001313 01 02.097-00 37 48.17         20.0 GVEJ147H01
     K24J03M  C2024 05 07.34689813 01 22.475-00 54 45.48         19.96GVEJ147F51
     K24J03M  C2024 05 07.34771113 01 22.708-00 55 03.66         19.97GVEJ147F51
     K24J03M KB2024 05 07.88115613 04 21.43 -04 09 34.1          20.2 GXEJ147I93
     K24J03M KB2024 05 07.88632913 04 22.87 -04 11 24.4          20.1 GXEJ147I93
     K24J03M KB2024 05 07.89144013 04 24.33 -04 13 13.6          20.2 GXEJ147I93
     K24J03M KB2024 05 07.91302313 04 30.58 -04 20 49.7          19.7 GXEJ147958
     K24J03M KB2024 05 07.91619613 04 31.41 -04 21 56.4          19.5 GXEJ147958
     K24J03M KB2024 05 07.91931913 04 32.24 -04 23 02.6          19.8 GXEJ147958
     K24J03M KC2024 05 08.18816613 05 57.74 -05 56 33.9          20.0 GVEJ147H21
     K24J03M KC2024 05 08.19014413 05 58.29 -05 57 14.6          20.3 GVEJ147H21
     K24J03M KC2024 05 08.19212013 05 58.83 -05 57 55.6          20.4 GVEJ147H21
     K24J03M KC2024 05 08.19409513 05 59.37 -05 58 36.2          20.4 GVEJ147H21
     K24J03M  C2024 05 08.29949113 06 32.192-06 34 31.54         20.1 GVEJ147U74
     K24J03M  C2024 05 08.30325413 06 33.084-06 35 49.70         20.1 GVEJ147U74
Observer details:
807 Cerro Tololo Observatory, La Serena.  Observers T. Linder, R. Holmes.
    0.61-m f/6.8 Ritchey-Chretien + CCD.
958 Observatoire de Dax.  Observer P. Dupouy.  0.50-m f/4.5 Reflector + CMO.
F51 Pan-STARRS 1, Haleakala.  Observers J. Herman, T. Lowe, P. Minguez, A.
    Schultz, I. Smith.  Measurers K. Chambers, T. de Boer, J. Fairlamb, H.
    Gao, M. Huber, C.-C. Lin, E. Magnier, Y. Ramanjooloo, R. Wainscoat, R.
    Weryk.  1.8-m Ritchey-Chretien + CCD.
F52 Pan-STARRS 2, Haleakala.  Observers J. Herman, T. Lowe, P. Minguez, A.
    Schultz, I. Smith.  Measurers K. Chambers, T. de Boer, J. Fairlamb, H.
    Gao, M. Huber, C.-C. Lin, E. Magnier, Y. Ramanjooloo, R. Wainscoat, R.
    Weryk.  1.8-m Ritchey-Chretien + CCD.
H01 Magdalena Ridge Observatory, Socorro.  Observers W. H. Ryan, E. V. Ryan.
    Measurer W. H. Ryan.  2.4-m f/8.9 Ritchey-Chretien + CCD.
H21 Astronomical Research Observatory, Westfield.  Observer R. Holmes.
    Measurers T. Linder, R. Holmes, L. Horn.  0.76-m f/3.0 astrograph + CCD,
    0.81-m f/4.0 astrograph + CCD.
I52 Steward Observatory, Mt. Lemmon Station.  Observer H. Groeller.  Measurers
    T. Beuden, V. F. Carvajal, D. Fay, J. B. Fazekas, D. C. Fuls, A. R. Gibbs,
    A. D. Grauer, H. Groeller, J. K. Hogan, R. A. Kowalski, S. M. Larson, G.
    J. Leonard, D. Rankin, R. L. Seaman, F. C. Shelly, K. W. Wierzchos.  1.0-m
    prime focus + CCD.
I93 St Pardon de Conques.  Observer F. Losse.  0.40-m f/3.7 reflector + CMO.
U74 JPL SynTrack Robotic Telescope 2, Auberry.  Observers N. Saini, R. Trahan,
    M. Zhan, M. Shao.  0.36-m Reflector + CCD.
Orbital elements:
2024 JM3                                                 Earth MOID = 0.0432 AU
Epoch 2024 Mar. 31.0 TT = JDT 2460400.5                 Veres                   
M 358.70871              (2000.0)            P               Q                  
n   0.40278418     Peri.  139.21239     -0.97897292     +0.07735996             
a   1.8158827      Node    46.31603     -0.17056305     -0.81797418             
e   0.4590405      Incl.   15.13002     +0.11189397     -0.57002954             
P   2.45           H   25.04          G   0.15           U   7                  
Residuals in seconds of arc
240506 F52 (0.2-  0.9+)   240507 H21  0.0   0.1+    240507 I93  0.0   0.5-
240506 F52  0.0   0.3+    240507 I52  0.0   0.0     240507 I93  0.2+  1.2-
240506 F52  0.1-  0.4-    240507 I52  0.4+  0.1-    240507 958  0.9+  0.8-
240506 F52  0.0   0.1+    240507 I52  0.1+  0.3-    240507 958  0.0   0.3-
240506 F51  0.1+  0.1-    240507 H01  0.0   0.1-    240507 958  0.7-  0.4-
240506 F51  0.1-  0.3+    240507 H01  0.1+  0.0     240508 H21  0.1-  0.1+
240507 807  0.4+  0.0     240507 H01  0.1+  0.1-    240508 H21  0.0   0.1+
240507 807  0.3+  0.2-    240507 H01  0.0   0.1-    240508 H21  0.0   0.1-
240507 807  0.2+  0.0     240507 F51  0.0   0.2+    240508 H21  0.0   0.0
240507 H21  0.1-  0.0     240507 F51  0.1+  0.1+    240508 U74  2.1+  0.7+
240507 H21  0.0   0.1+    240507 I93  0.4+  0.2-    240508 U74  0.1+  0.8-
Ephemeris:
2024 JM3                 a,e,i = 1.82, 0.46, 15                  q = 0.9823
Date    TT    R. A. (2000) Decl.     Delta      r    Elong.  Phase     V
2024 04 08    05 59 23.9 +77 24 00   0.1818  0.9839    79.3    90.2    24.5
...
2024 04 23    10 30 34.7 +70 18 29   0.09481 1.0093    89.6    85.0    22.9
...
2024 05 01    12 15 29.6 +41 24 50   0.05956 1.0343   115.2    61.9    21.2
...
2024 05 07    12 59 23.1 +01 17 10   0.05796 1.0576   145.9    32.3    20.3
2024 05 08    13 04 58.2 -04 49 19   0.06059 1.0618   149.2    29.1    20.4
2024 05 09    13 10 11.4 -10 22 02   0.06389 1.0661   151.5    26.9    20.4
...
2024 05 15    13 35 41.9 -32 27 58   0.09342 1.0938   151.4    26.2    21.3
...
2024 05 23    14 00 08.2 -44 45 06   0.1451  1.1350   145.5    30.4    22.4
...
2024 06 07    14 33 51.6 -51 37 52   0.2568  1.2218   139.6    32.6    23.9
M. P. C. Staff               (C) Copyright 2024 MPC           M.P.E.C. 2024-J147
    
    
More information about the Iaude
mailing list